CW4621 Weather Reports


Display with metric or nautical units.
time (UTC)temp
F
wind
direction
speed
MPH
gust
MPH
rain 1hr
in
rain 24hr
in
rain mn
in
humidity
%
barometer
mb
20260903163104 84 235 3.0 6.0 0.00 1.21 1.17 80 1014.7
20260903162605 83 230 2.0 6.0 0.00 1.21 1.17 80 1014.8
20260903162105 83 343 2.0 7.0 0.00 1.21 1.17 82 1014.8
20260903161604 83 237 2.0 12.0 0.00 1.21 1.17 81 1014.9
20260903161104 83 191 2.0 7.0 0.00 1.21 1.17 82 1014.9
20260903160104 83 209 2.0 8.0 0.00 1.21 1.17 82 1014.8
20260903155604 82 233 2.0 7.0 0.00 1.21 1.17 83 1014.8
20260903155104 82 226 2.0 7.0 0.00 1.21 1.17 83 1014.7
20260903154604 82 239 3.0 10.0 0.00 1.21 1.17 83 1014.6
20260903154104 82 228 2.0 9.0 0.00 1.21 1.17 83 1014.6
20260903153605 82 223 1.0 3.0 0.00 1.21 1.17 84 1014.6
20260903153104 82 260 0.0 5.0 0.00 1.21 1.17 84 1014.8
20260903152604 82 301 2.0 5.0 0.00 1.21 1.17 84 1014.9
20260903151604 81 112 1.0 5.0 0.00 1.21 1.17 85 1014.9
20260903151105 81 19 1.0 3.0 0.00 1.21 1.17 85 1014.9
20260903150604 81 346 1.0 3.0 0.00 1.21 1.17 86 1014.9
20260903150104 81 321 1.0 2.0 0.00 1.21 1.17 86 1014.8
20260903145604 80 212 1.0 3.0 0.00 1.21 1.17 86 1014.8
20260903144604 80 5 2.0 6.0 0.00 1.21 1.17 87 1014.8
20260903144105 80 301 2.0 7.0 0.00 1.21 1.17 87 1014.8
20260903143604 80 262 2.0 9.0 0.00 1.21 1.17 87 1014.7
20260903141604 79 231 1.0 7.0 0.00 1.21 1.17 88 1014.7
20260903141104 79 223 3.0 8.0 0.00 1.21 1.17 87 1014.7
20260903140604 79 229 2.0 7.0 0.00 1.21 1.17 88 1014.6
20260903140105 79 248 2.0 5.0 0.00 1.21 1.17 89 1014.5
20260903135604 78 237 2.0 5.0 0.00 1.21 1.17 89 1014.3
20260903135105 78 210 2.0 5.0 0.00 1.21 1.17 91 1014.2
20260903134605 77 350 1.0 2.0 0.00 1.21 1.17 93 1014.1
20260903134105 76 115 1.0 2.0 0.00 1.21 1.17 93 1013.9
20260903133104 75 356 1.0 3.0 0.00 1.21 1.17 95 1014.1
20260903132604 75 227 0.0 2.0 0.00 1.21 1.17 95 1014.4
20260903132106 74 280 1.0 3.0 0.00 1.21 1.17 95 1014.4
20260903131105 74 139 0.0 1.0 0.00 1.21 1.17 96 1014.5
20260903130605 73 295 1.0 2.0 0.00 1.21 1.17 96 1014.5
20260903125605 72 131 0.0 1.0 0.00 1.21 1.17 96 1014.5
20260903125105 72 227 1.0 2.0 0.00 1.21 1.17 96 1014.7
20260903124105 72 58 1.0 3.0 0.00 1.21 1.17 96 1014.4
20260903123604 72 223 2.0 6.0 0.00 1.21 1.17 96 1013.7
20260903123105 72 138 2.0 8.0 0.00 1.21 1.17 96 1013.4
20260903122604 72 136 2.0 8.0 0.00 1.21 1.17 96 1013.6
20260903122104 72 175 2.0 8.0 0.00 1.21 1.17 96 1014.0
20260903121105 72 150 1.0 3.0 0.00 1.21 1.17 96 1014.6
20260903120605 71 233 1.0 3.0 0.00 1.21 1.17 96 1015.2
20260903120104 71 231 1.0 3.0 0.00 1.21 1.17 96 1015.4
20260903115605 71 138 1.0 3.0 0.00 1.21 1.17 96 1015.3
20260903115105 71 76 1.0 3.0 0.00 1.21 1.17 96 1015.4
20260903114604 71 164 1.0 3.0 0.00 1.21 1.17 96 1015.5
20260903114105 71 221 1.0 2.0 0.00 1.21 1.17 96 1015.6
20260903113605 71 167 0.0 1.0 0.00 1.21 1.17 96 1015.9
20260903113104 71 241 0.0 2.0 0.00 1.21 1.17 96 1015.9
20260903112604 71 246 1.0 2.0 0.00 1.21 1.17 96 1016.0
20260903112105 71 170 0.0 3.0 0.01 1.21 1.17 96 1016.0
20260903111605 71 139 0.0 2.0 0.01 1.21 1.17 96 1016.0
20260903111104 71 123 1.0 2.0 0.01 1.21 1.17 96 1016.0
20260903110605 71 219 0.0 1.0 0.01 1.21 1.17 96 1016.0
20260903110104 71 223 0.0 2.0 0.01 1.21 1.17 96 1015.7
20260903105604 71 258 1.0 2.0 0.02 1.21 1.17 96 1015.8
20260903105104 71 349 0.0 2.0 0.03 1.21 1.17 96 1016.0
20260903104605 71 4 0.0 1.0 0.03 1.21 1.17 96 1015.6
20260903102605 71 244 0.0 3.0 0.06 1.21 1.17 96 1015.1
20260903101604 71 143 1.0 3.0 0.07 1.20 1.16 96 1015.3
20260903101105 71 28 0.0 2.0 0.07 1.20 1.16 96 1015.5
20260903100604 71 154 0.0 2.0 0.09 1.20 1.16 96 1015.2
20260903100105 71 220 1.0 3.0 0.17 1.20 1.16 96 1015.7
20260903095604 71 186 0.0 2.0 0.23 1.19 1.15 96 1015.6
20260903094104 71 185 1.0 2.0 0.28 1.18 1.14 96 1016.2
20260903093104 71 166 0.0 2.0 0.34 1.16 1.12 96 1016.1
20260903092104 71 173 0.0 1.0 0.33 1.14 1.10 96 1016.1
20260903091604 71 154 0.0 2.0 0.36 1.13 1.09 96 1016.3
20260903091104 71 161 1.0 1.0 0.36 1.13 1.09 96 1016.9
20260903090604 71 204 1.0 2.0 0.34 1.11 1.07 96 1017.5
20260903085604 71 1 0.0 1.0 0.20 0.97 0.92 96 1017.5
20260903085105 71 356 0.0 3.0 0.23 0.94 0.89 96 1017.0
20260903084605 71 359 0.0 6.0 0.22 0.93 0.88 96 1017.1
20260903084104 71 341 1.0 6.0 0.20 0.91 0.86 96 1017.0
20260903083604 71 14 0.0 1.0 0.13 0.84 0.79 96 1016.5
20260903083104 71 195 0.0 0.0 0.12 0.83 0.78 96 1016.3
20260903082604 71 195 0.0 0.0 0.12 0.83 0.78 96 1015.9
20260903082105 71 195 0.0 1.0 0.11 0.82 0.77 96 1016.0
20260903081604 71 188 0.0 0.0 0.07 0.78 0.73 96 1016.1
20260903081104 71 188 0.0 0.0 0.07 0.78 0.73 96 1015.8
20260903075605 71 247 0.0 1.0 0.06 0.77 0.72 96 1016.0
20260903074605 70 93 0.0 0.0 0.01 0.71 0.66 95 1015.9
20260903074104 70 93 0.0 1.0 0.01 0.71 0.66 95 1015.8
20260903073604 70 85 0.0 1.0 0.03 0.71 0.66 95 1015.8
20260903073104 70 152 0.0 1.0 0.06 0.71 0.66 95 1015.8
20260903072604 70 159 0.0 0.0 0.13 0.71 0.66 95 1015.8
20260903072104 70 159 0.0 0.0 0.36 0.71 0.66 95 1015.8
20260903071605 70 159 0.0 0.0 0.63 0.71 0.66 95 1015.7
20260903071104 70 159 0.0 0.0 0.66 0.71 0.66 95 1015.9
20260903070604 70 159 0.0 1.0 0.66 0.71 0.66 95 1016.0
20260903065604 70 92 0.0 1.0 0.66 0.71 0.66 95 1015.9
20260903065104 70 162 0.0 5.0 0.66 0.71 0.66 95 1015.9
20260903064605 71 333 0.0 2.0 0.65 0.70 0.65 94 1015.7
20260903064105 71 171 2.0 6.0 0.65 0.70 0.65 94 1015.8
20260903063605 71 339 0.0 1.0 0.63 0.68 0.63 94 1016.1
20260903062604 71 11 0.0 2.0 0.53 0.58 0.53 93 1017.7
20260903062105 71 31 0.0 3.0 0.30 0.35 0.30 93 1018.1
20260903061604 71 312 0.0 2.0 0.03 0.08 0.03 93 1018.7
20260903061105 71 358 0.0 2.0 0.00 0.05 0.00 93 1018.2
20260903060605 71 338 0.0 1.0 0.00 0.05 0.00 93 1017.6
20260903060104 71 2 1.0 2.0 0.00 0.05 0.00 93 1017.2
20260903055605 71 15 0.0 1.0 0.00 0.05 0.00 93 1017.3
20260903055104 71 18 0.0 5.0 0.00 0.05 0.00 93 1017.1
20260903054104 71 355 0.0 2.0 0.00 0.05 0.00 93 1016.6
20260903053604 71 29 0.0 1.0 0.00 0.05 0.00 93 1017.0
20260903051604 71 103 0.0 0.0 0.00 0.05 0.00 93 1016.8
20260903051104 71 103 0.0 1.0 0.00 0.05 0.00 93 1016.7
20260903050605 71 112 0.0 1.0 0.00 0.05 0.00 93 1016.7
20260903050104 71 112 0.0 0.0 0.00 0.05 0.00 92 1016.6
20260903045604 71 112 0.0 0.0 0.00 0.05 0.00 92 1016.7
20260903045104 71 112 0.0 1.0 0.00 0.05 0.00 92 1016.6
20260903044604 71 347 0.0 0.0 0.00 0.05 0.00 92 1016.9
20260903044105 71 347 0.0 0.0 0.00 0.05 0.00 92 1016.8
20260903043604 71 347 0.0 0.0 0.00 0.05 0.00 92 1017.1
20260903043104 71 347 0.0 1.0 0.00 0.05 0.00 92 1017.0
20260903042104 71 347 0.0 1.0 0.00 0.05 0.00 92 1017.3
20260903041604 71 347 0.0 0.0 0.00 0.05 0.00 92 1017.4
20260903041105 71 347 0.0 1.0 0.00 0.05 0.00 92 1017.5
20260903040604 71 347 1.0 1.0 0.00 0.05 0.00 92 1017.5
20260903035604 71 55 0.0 1.0 0.00 0.05 0.05 92 1017.7
20260903034605 71 55 0.0 0.0 0.00 0.05 0.05 92 1017.4
20260903034104 71 55 0.0 1.0 0.00 0.05 0.05 92 1017.3
20260903033604 71 120 0.0 1.0 0.00 0.05 0.05 92 1017.2
20260903032104 72 120 0.0 0.0 0.00 0.05 0.05 92 1017.3
20260903031104 72 139 0.0 0.0 0.00 0.05 0.05 92 1017.2
20260903030604 72 140 0.0 2.0 0.00 0.05 0.05 92 1017.3
20260903025604 71 84 0.0 1.0 0.00 0.05 0.05 92 1017.5
20260903025105 72 68 0.0 0.0 0.00 0.05 0.05 92 1017.6
20260903024604 72 68 0.0 1.0 0.00 0.05 0.05 92 1017.5
20260903024105 72 67 0.0 1.0 0.00 0.05 0.05 92 1017.5
20260903023604 72 67 0.0 1.0 0.00 0.05 0.05 92 1017.7
20260903023104 72 67 0.0 1.0 0.00 0.05 0.05 92 1017.3
20260903022104 72 89 0.0 1.0 0.00 0.05 0.05 92 1017.2
20260903021104 72 51 1.0 3.0 0.00 0.05 0.05 92 1016.8
20260903020605 72 86 0.0 0.0 0.00 0.05 0.05 92 1016.9
20260903015105 72 176 0.0 1.0 0.00 0.05 0.05 92 1017.2
20260903014605 72 101 0.0 2.0 0.00 0.05 0.05 92 1017.3
20260903014105 72 39 0.0 0.0 0.00 0.05 0.05 92 1017.4
20260903013605 72 124 0.0 1.0 0.00 0.05 0.05 92 1017.4
20260903013105 72 31 0.0 3.0 0.00 0.05 0.05 92 1017.5
20260903012604 72 87 0.0 2.0 0.00 0.05 0.05 92 1017.5
20260903012105 72 67 0.0 1.0 0.00 0.05 0.05 92 1017.6
20260903011605 72 103 0.0 1.0 0.00 0.07 0.05 92 1017.6
20260903010105 72 66 0.0 1.0 0.00 0.08 0.05 92 1017.5
20260903005105 72 94 0.0 1.0 0.00 0.10 0.05 91 1017.5
20260903004605 72 88 0.0 2.0 0.00 0.12 0.05 91 1017.6
20260903003606 73 63 0.0 1.0 0.00 0.15 0.05 91 1017.6
20260903003105 73 118 0.0 1.0 0.00 0.15 0.05 91 1017.6
20260903002604 73 119 0.0 2.0 0.00 0.15 0.05 91 1017.6
20260903002104 73 111 0.0 2.0 0.00 0.15 0.05 91 1017.4
20260903001604 73 70 0.0 0.0 0.00 0.15 0.05 91 1017.3
20260903000605 73 70 0.0 1.0 0.00 0.15 0.05 91 1017.1
20260903000104 73 69 0.0 1.0 0.00 0.15 0.05 91 1017.1
20260902235604 73 75 0.0 0.0 0.00 0.15 0.05 91 1017.0
20260902234605 73 46 0.0 1.0 0.00 0.15 0.05 91 1016.9
20260902233604 73 205 0.0 1.0 0.00 0.15 0.05 90 1017.0
20260902233104 73 235 0.0 2.0 0.00 0.15 0.05 90 1016.8
20260902232604 73 157 0.0 1.0 0.00 0.15 0.05 90 1016.8
20260902232104 73 166 0.0 1.0 0.00 0.15 0.05 90 1016.9
20260902231605 73 76 0.0 1.0 0.00 0.15 0.05 90 1017.0
20260902231105 73 84 0.0 2.0 0.00 0.15 0.05 90 1017.0
20260902230106 74 88 0.0 2.0 0.00 0.15 0.05 90 1017.0
20260902225605 74 79 0.0 2.0 0.00 0.15 0.05 90 1017.2
20260902225104 74 99 1.0 3.0 0.00 0.15 0.05 90 1017.3
20260902224104 74 74 0.0 1.0 0.00 0.15 0.05 90 1017.5
20260902223104 74 82 0.0 1.0 0.00 0.15 0.05 90 1017.5
20260902222605 74 43 0.0 1.0 0.00 0.15 0.05 90 1017.6
20260902222105 74 63 0.0 3.0 0.00 0.15 0.05 90 1017.6
20260902221604 74 68 0.0 2.0 0.00 0.15 0.05 90 1017.6
20260902221104 74 23 0.0 2.0 0.00 0.15 0.05 90 1017.4
20260902220105 75 50 0.0 2.0 0.00 0.15 0.05 90 1017.4
20260902215604 75 108 1.0 3.0 0.00 0.15 0.05 90 1017.3
20260902215104 74 107 1.0 5.0 0.00 0.15 0.05 90 1017.4
20260902214604 74 84 0.0 2.0 0.00 0.15 0.05 91 1017.1
20260902214104 74 107 0.0 3.0 0.00 0.15 0.05 92 1017.1
20260902213605 74 73 0.0 2.0 0.00 0.15 0.05 92 1017.3
20260902213104 74 62 1.0 3.0 0.00 0.15 0.05 92 1017.2
20260902212105 74 94 1.0 3.0 0.00 0.15 0.05 92 1017.3
20260902211604 74 107 1.0 3.0 0.00 0.15 0.05 93 1017.2
20260902211104 74 11 0.0 0.0 0.00 0.15 0.05 93 1017.3
20260902210605 74 20 0.0 2.0 0.00 0.15 0.05 93 1017.5
20260902205104 74 88 0.0 1.0 0.00 0.15 0.05 93 1017.5
20260902204605 73 105 0.0 2.0 0.00 0.15 0.05 93 1017.4
20260902204105 73 81 0.0 2.0 0.00 0.15 0.05 93 1017.4
20260902203604 73 78 1.0 3.0 0.00 0.15 0.05 93 1017.2
20260902203104 73 41 0.0 1.0 0.00 0.15 0.05 93 1017.1
20260902202604 73 70 0.0 1.0 0.00 0.15 0.05 93 1017.1
20260902202105 73 109 1.0 3.0 0.00 0.15 0.05 93 1017.0
20260902201604 73 37 0.0 2.0 0.00 0.15 0.05 93 1017.1
20260902201105 73 33 0.0 1.0 0.00 0.15 0.05 93 1017.1
20260902200105 73 35 0.0 1.0 0.00 0.15 0.05 93 1017.5
20260902195605 73 94 0.0 1.0 0.00 0.15 0.05 93 1017.6
20260902195104 73 1 0.0 1.0 0.00 0.15 0.05 93 1017.5
20260902194604 73 348 0.0 1.0 0.00 0.15 0.05 93 1017.6
20260902194105 73 95 0.0 2.0 0.00 0.15 0.05 93 1017.5
20260902193604 73 15 0.0 1.0 0.00 0.15 0.05 93 1017.5
20260902191604 73 22 0.0 1.0 0.01 0.15 0.05 93 1017.8
20260902191104 73 23 0.0 1.0 0.02 0.15 0.05 92 1018.0
20260902190604 73 34 0.0 1.0 0.03 0.15 0.05 92 1018.0
20260902190104 73 52 0.0 1.0 0.04 0.15 0.05 92 1018.0
20260902185604 73 53 0.0 1.0 0.04 0.15 0.05 92 1018.1
20260902185104 73 51 0.0 1.0 0.04 0.15 0.05 92 1018.1
20260902184604 73 51 0.0 1.0 0.04 0.15 0.05 92 1018.1
20260902184104 73 51 0.0 1.0 0.04 0.15 0.05 92 1018.0
20260902183605 73 189 0.0 1.0 0.04 0.15 0.05 92 1017.9
20260902183104 74 220 0.0 3.0 0.03 0.14 0.04 92 1017.9
20260902182605 74 119 0.0 3.0 0.03 0.14 0.04 92 1017.8
20260902182105 74 143 1.0 3.0 0.03 0.14 0.04 91 1017.8
20260902181604 74 209 0.0 1.0 0.03 0.14 0.04 91 1017.9
20260902180604 74 210 1.0 5.0 0.01 0.12 0.02 90 1018.2
20260902175605 75 121 1.0 3.0 0.00 0.11 0.01 89 1018.8
20260902174604 75 11 0.0 1.0 0.00 0.11 0.01 88 1018.9
20260902173604 75 10 0.0 1.0 0.00 0.11 0.01 88 1019.1
20260902172604 75 10 0.0 1.0 0.00 0.11 0.01 88 1019.3
20260902172104 76 358 0.0 1.0 0.00 0.11 0.01 88 1019.3
20260902170604 76 327 0.0 1.0 0.00 0.11 0.01 88 1019.0
20260902170104 76 134 0.0 2.0 0.00 0.11 0.01 89 1019.0
20260902165604 76 246 0.0 2.0 0.00 0.11 0.01 89 1018.8
20260902165104 75 190 0.0 2.0 0.00 0.11 0.01 89 1018.6
20260902164604 75 2 1.0 2.0 0.00 0.11 0.01 89 1018.6
20260902164104 75 88 2.0 3.0 0.00 0.11 0.01 89 1018.6